Location: Newark
(55.7083°N, 13.1992°E)
Time: 05:23:41
(UTC+00:00)

Envisat - Pass Details

Date: 12 October 2022
Orbit: 763 x 765 km, 98.2° (Epoch: 09 December)

Event Time Altitude Azimuth Distance (km) Brightness Sun altitude
Rises 01:40:27 0° 29° (NNE) 3,248 7.2 -31.5°
Reaches altitude 10° 01:45:08 10° 68° (ENE) 2,313 6.3 -31.0°
Maximum altitude 01:46:08 11° 80° (E) 2,275 6.1 -30.9°
Drops below altitude 10° 01:47:08 10° 91° (E) 2,309 6.0 -30.8°
Sets 01:51:46 0° 130° (SE) 3,227 6.4 -30.3°
